• en Belgique
  • Liste des pays
  • À 7 jours
  • Température de l'eau
  • Carte satellitaire
  • Carte météo
  • Widgets météo
  • user-avatar
    Se connecter

    Météo par heure à Brisbane

    Ce jour, 12 Décembre, Mardi

    Heure Température Précipitation Vent Pression Humidité
    00:00 +20°C° 0 mm 3 m/s 761 mmHg 82%
    01:00 +20°C° 0 mm 3 m/s 761 mmHg 84%
    02:00 +19°C° 0 mm 3 m/s 760 mmHg 85%
    03:00 +19°C° 0 mm 3 m/s 760 mmHg 86%
    04:00 +19°C° 0 mm 4 m/s 760 mmHg 87%
    05:00 +20°C° 0 mm 4 m/s 760 mmHg 81%
    06:00 +22°C° 0 mm 4 m/s 760 mmHg 76%
    07:00 +23°C° 0 mm 4 m/s 761 mmHg 70%
    08:00 +26°C° 0 mm 5 m/s 760 mmHg 63%
    09:00 +28°C° 0 mm 5 m/s 760 mmHg 56%
    10:00 +29°C° 0 mm 5 m/s 760 mmHg 49%
    11:00 +30°C° 0 mm 5 m/s 760 mmHg 47%
    12:00 +32°C° 0 mm 6 m/s 760 mmHg 44%
    13:00 +33°C° 0 mm 6 m/s 760 mmHg 42%
    14:00 +32°C° 0 mm 6 m/s 760 mmHg 43%
    15:00 +30°C° 0 mm 6 m/s 759 mmHg 45%
    16:00 +30°C° 0 mm 6 m/s 759 mmHg 47%
    17:00 +28°C° 0 mm 5 m/s 759 mmHg 55%
    18:00 +26°C° 0 mm 5 m/s 760 mmHg 62%
    19:00 +25°C° 0 mm 4 m/s 760 mmHg 70%
    20:00 +23°C° 0 mm 4 m/s 760 mmHg 75%
    21:00 +22°C° 0 mm 4 m/s 761 mmHg 79%
    22:00 +21°C° 0 mm 3 m/s 761 mmHg 83%
    23:00 +21°C° 0 mm 3 m/s 761 mmHg 85%

    Demain, 13 Décembre, Mercredi

    Heure Température Précipitation Vent Pression Humidité
    00:00 +21°C° 0 mm 3 m/s 760 mmHg 86%
    01:00 +20°C° 0 mm 3 m/s 760 mmHg 88%
    02:00 +20°C° 0 mm 3 m/s 760 mmHg 88%
    03:00 +20°C° 0 mm 3 m/s 760 mmHg 88%
    04:00 +20°C° 0 mm 3 m/s 759 mmHg 88%
    05:00 +21°C° 0 mm 3 m/s 760 mmHg 83%
    06:00 +22°C° 0 mm 3 m/s 760 mmHg 78%
    07:00 +25°C° 0 mm 3 m/s 760 mmHg 73%
    08:00 +26°C° 0 mm 3 m/s 760 mmHg 65%
    09:00 +28°C° 0 mm 3 m/s 760 mmHg 57%
    10:00 +30°C° 0 mm 4 m/s 760 mmHg 48%
    11:00 +32°C° 0 mm 4 m/s 759 mmHg 45%
    12:00 +32°C° 0 mm 4 m/s 759 mmHg 42%
    13:00 +33°C° 0 mm 4 m/s 758 mmHg 39%
    14:00 +33°C° 0 mm 5 m/s 758 mmHg 41%
    15:00 +32°C° 0 mm 5 m/s 758 mmHg 44%
    16:00 +30°C° 0 mm 5 m/s 757 mmHg 46%
    17:00 +28°C° 0 mm 4 m/s 758 mmHg 54%
    18:00 +26°C° 0 mm 4 m/s 758 mmHg 62%
    19:00 +24°C° 0 mm 3 m/s 759 mmHg 70%
    20:00 +24°C° 0 mm 3 m/s 759 mmHg 75%
    21:00 +23°C° 0 mm 2 m/s 760 mmHg 79%
    22:00 +21°C° 0 mm 2 m/s 760 mmHg 83%
    23:00 +21°C° 0 mm 2 m/s 760 mmHg 84%

    Après-demain, 14 Décembre, Jeudi

    Heure Température Précipitation Vent Pression Humidité
    00:00 +21°C° 0 mm 1 m/s 759 mmHg 86%
    01:00 +21°C° 0 mm 1 m/s 759 mmHg 87%
    02:00 +21°C° 0 mm 1 m/s 759 mmHg 88%
    03:00 +20°C° 0 mm 1 m/s 758 mmHg 89%
    04:00 +20°C° 0 mm 1 m/s 758 mmHg 90%
    05:00 +22°C° 0 mm 1 m/s 758 mmHg 84%
    06:00 +23°C° 0 mm 1 m/s 759 mmHg 77%
    07:00 +25°C° 0 mm 1 m/s 759 mmHg 70%
    08:00 +27°C° 0 mm 1 m/s 759 mmHg 61%
    09:00 +29°C° 0 mm 2 m/s 759 mmHg 52%
    10:00 +31°C° 0 mm 2 m/s 758 mmHg 43%
    11:00 +32°C° 0 mm 2 m/s 758 mmHg 41%
    12:00 +34°C° 0 mm 3 m/s 757 mmHg 39%
    13:00 +34°C° 0 mm 3 m/s 757 mmHg 36%
    14:00 +34°C° 0 mm 3 m/s 756 mmHg 39%
    15:00 +33°C° 0 mm 4 m/s 756 mmHg 42%
    16:00 +32°C° 0 mm 4 m/s 756 mmHg 44%
    17:00 +29°C° 0 mm 3 m/s 756 mmHg 54%
    18:00 +27°C° 0 mm 3 m/s 757 mmHg 64%
    19:00 +25°C° 0 mm 3 m/s 757 mmHg 74%
    20:00 +25°C° 0 mm 3 m/s 758 mmHg 79%
    21:00 +24°C° 0 mm 2 m/s 758 mmHg 84%
    22:00 +23°C° 0 mm 2 m/s 759 mmHg 89%
    23:00 +23°C° 0 mm 2 m/s 758 mmHg 90%

    15 Décembre, Vendredi

    Heure Température Précipitation Vent Pression Humidité
    00:00 +23°C° 0 mm 1 m/s 758 mmHg 90%
    01:00 +23°C° 0 mm 1 m/s 757 mmHg 91%
    02:00 +23°C° 0 mm 1 m/s 757 mmHg 91%
    03:00 +23°C° 0 mm 1 m/s 757 mmHg 91%
    04:00 +23°C° 0 mm 1 m/s 757 mmHg 90%
    05:00 +24°C° 0 mm 1 m/s 758 mmHg 85%
    06:00 +25°C° 0 mm 1 m/s 758 mmHg 79%
    07:00 +26°C° 0 mm 1 m/s 759 mmHg 73%
    08:00 +28°C° 0 mm 1 m/s 758 mmHg 64%
    09:00 +30°C° 0 mm 2 m/s 758 mmHg 55%
    10:00 +32°C° 0 mm 2 m/s 758 mmHg 46%
    11:00 +34°C° 0 mm 3 m/s 758 mmHg 43%
    12:00 +35°C° 0 mm 3 m/s 757 mmHg 41%
    13:00 +35°C° 0 mm 3 m/s 757 mmHg 38%
    14:00 +34°C° 0 mm 4 m/s 757 mmHg 42%
    15:00 +34°C° 0 mm 4 m/s 756 mmHg 45%
    16:00 +33°C° 0 mm 5 m/s 756 mmHg 48%
    17:00 +30°C° 0 mm 4 m/s 757 mmHg 58%
    18:00 +28°C° 0 mm 4 m/s 757 mmHg 68%
    19:00 +26°C° 0 mm 3 m/s 758 mmHg 78%
    20:00 +25°C° 0 mm 3 m/s 758 mmHg 81%
    21:00 +25°C° 0 mm 3 m/s 759 mmHg 85%
    22:00 +24°C° 0 mm 3 m/s 760 mmHg 89%
    23:00 +24°C° 0 mm 3 m/s 759 mmHg 89%

    16 Décembre, Samedi

    Heure Température Précipitation Vent Pression Humidité
    00:00 +24°C° 0 mm 2 m/s 759 mmHg 89%
    01:00 +24°C° 0 mm 2 m/s 759 mmHg 88%
    02:00 +24°C° 0 mm 2 m/s 759 mmHg 89%
    03:00 +23°C° 0 mm 2 m/s 759 mmHg 90%
    04:00 +23°C° 0 mm 1 m/s 759 mmHg 90%
    05:00 +24°C° 0 mm 2 m/s 759 mmHg 85%
    06:00 +25°C° 0 mm 2 m/s 760 mmHg 79%
    07:00 +26°C° 0 mm 2 m/s 760 mmHg 74%
    08:00 +28°C° 0 mm 2 m/s 760 mmHg 65%
    09:00 +29°C° 0 mm 2 m/s 760 mmHg 57%
    10:00 +31°C° 0 mm 3 m/s 760 mmHg 48%
    11:00 +33°C° 0 mm 3 m/s 759 mmHg 44%
    12:00 +34°C° 0 mm 3 m/s 759 mmHg 41%
    13:00 +34°C° 0 mm 3 m/s 758 mmHg 37%
    14:00 +34°C° 0 mm 3 m/s 758 mmHg 40%
    15:00 +33°C° 0 mm 4 m/s 757 mmHg 42%
    16:00 +32°C° 0 mm 4 m/s 757 mmHg 45%
    17:00 +30°C° 0 mm 4 m/s 758 mmHg 54%
    18:00 +28°C° 0 mm 4 m/s 758 mmHg 63%
    19:00 +26°C° 0 mm 3 m/s 758 mmHg 72%
    20:00 +25°C° 0 mm 3 m/s 759 mmHg 76%
    21:00 +25°C° 0 mm 3 m/s 759 mmHg 81%
    22:00 +24°C° 0 mm 2 m/s 760 mmHg 86%
    23:00 +24°C° 0 mm 2 m/s 759 mmHg 86%

    17 Décembre, Dimanche

    Heure Température Précipitation Vent Pression Humidité
    00:00 +24°C° 0 mm 2 m/s 759 mmHg 87%
    01:00 +23°C° 0 mm 2 m/s 759 mmHg 87%
    02:00 +23°C° 0 mm 2 m/s 759 mmHg 87%
    03:00 +23°C° 0 mm 1 m/s 759 mmHg 87%
    04:00 +23°C° 0 mm 1 m/s 759 mmHg 88%
    05:00 +24°C° 0 mm 2 m/s 760 mmHg 82%
    06:00 +25°C° 0 mm 2 m/s 760 mmHg 76%
    07:00 +26°C° 0 mm 2 m/s 760 mmHg 70%
    08:00 +28°C° 0 mm 3 m/s 760 mmHg 63%
    09:00 +29°C° 0 mm 3 m/s 760 mmHg 55%
    10:00 +31°C° 0 mm 3 m/s 760 mmHg 48%
    11:00 +33°C° 0 mm 4 m/s 760 mmHg 46%
    12:00 +33°C° 0 mm 4 m/s 759 mmHg 43%
    13:00 +34°C° 0 mm 4 m/s 759 mmHg 41%
    14:00 +33°C° 0 mm 4 m/s 759 mmHg 44%
    15:00 +32°C° 0 mm 5 m/s 759 mmHg 47%
    16:00 +32°C° 0 mm 5 m/s 758 mmHg 50%
    17:00 +29°C° 0 mm 4 m/s 759 mmHg 59%
    18:00 +27°C° 0 mm 4 m/s 760 mmHg 68%
    19:00 +26°C° 0 mm 3 m/s 760 mmHg 76%
    20:00 +25°C° 0,1 mm 3 m/s 761 mmHg 80%
    21:00 +25°C° 0,1 mm 3 m/s 761 mmHg 84%
    22:00 +24°C° 0,1 mm 3 m/s 761 mmHg 88%
    23:00 +24°C° 0,1 mm 3 m/s 761 mmHg 89%
    Voir plus